Location: La Bilong�re
(48.1297°N, 1.4584°W)
Time: 01:23:33
(UTC+00:00)

ATLAS CENTAUR R/B - Pass Details

Date: 03 March 2021
Orbit: 475 x 670 km, 64.7° (Epoch: 30 March)

Event Time Altitude Azimuth Distance (km) Brightness Sun altitude
Rises 19:56:23 0° 230° (SW) 2,519 5.2 -21.2°
Reaches altitude 10° 19:58:33 10° 235° (SW) 1,641 4.3 -21.5°
Maximum altitude 20:02:06 51° 313° (NW) 606 1.8 -22.1°
Enters shadow 20:03:16 35° 7° (N) 788 2.1 -22.3°
